| time (UTC) | temp F | wind direction | speed knots | gust knots | rain 1hr in | rain 24hr in | rain mn in | humidity % | barometer mb |
| 20260505161601 | 61 | 250 | 2.6 | 7.8 | 0.00 | 0.01 | 0.01 | 78 | 1015.3 |
| 20260505153059 | 59 | 290 | 2.6 | 6.1 | 0.00 | 0.01 | 0.01 | 84 | 1015.2 |
| 20260505151553 | 58 | 292 | 0.9 | 2.6 | 0.00 | 0.01 | 0.01 | 86 | 1015.1 |
| 20260505124554 | 56 | 0 | 0.0 | 2.6 | 0.00 | 0.02 | 0.01 | 88 | 1013.8 |
| 20260505123112 | 56 | 0 | 0.0 | 2.6 | 0.01 | 0.02 | 0.01 | 88 | 1013.8 |
| 20260505121556 | 57 | 0 | 0.9 | 5.2 | 0.01 | 0.02 | 0.01 | 88 | 1013.8 |
| 20260505120055 | 57 | 309 | 0.9 | 7.0 | 0.01 | 0.02 | 0.01 | 88 | 1013.6 |
| 20260505114612 | 57 | 0 | 0.9 | 4.3 | 0.01 | 0.02 | 0.01 | 88 | 1013.7 |
| 20260505113056 | 57 | 248 | 1.7 | 4.3 | 0.00 | 0.01 | 0.00 | 88 | 1013.6 |
| 20260505111605 | 56 | 0 | 0.0 | 0.0 | 0.00 | 0.01 | 0.00 | 88 | 1013.6 |
| 20260505101554 | 57 | 257 | 0.9 | 2.6 | 0.00 | 0.01 | 0.00 | 86 | 1014.0 |
| 20260505100055 | 57 | 0 | 0.0 | 2.6 | 0.00 | 0.01 | 0.00 | 85 | 1014.1 |
| 20260505094551 | 57 | 260 | 0.9 | 3.5 | 0.00 | 0.01 | 0.00 | 85 | 1014.0 |
| 20260505093053 | 57 | 0 | 0.0 | 5.2 | 0.00 | 0.01 | 0.00 | 83 | 1014.1 |
| 20260505091547 | 58 | 0 | 0.0 | 5.2 | 0.00 | 0.01 | 0.00 | 83 | 1014.2 |
| 20260505090055 | 58 | 296 | 1.7 | 6.1 | 0.00 | 0.01 | 0.00 | 83 | 1014.3 |
| 20260505084557 | 57 | 0 | 0.0 | 0.9 | 0.00 | 0.01 | 0.00 | 83 | 1014.4 |
| 20260505083105 | 57 | 0 | 0.0 | 0.9 | 0.00 | 0.01 | 0.00 | 83 | 1014.6 |
| 20260505081555 | 57 | 0 | 0.0 | 3.5 | 0.00 | 0.01 | 0.00 | 82 | 1014.8 |
| 20260505080051 | 57 | 251 | 1.7 | 7.0 | 0.00 | 0.01 | 0.00 | 83 | 1014.9 |
| 20260505074550 | 58 | 277 | 0.9 | 6.1 | 0.00 | 0.01 | 0.00 | 79 | 1014.9 |
| 20260505073108 | 57 | 255 | 1.7 | 7.0 | 0.00 | 0.01 | 0.00 | 83 | 1015.1 |
| 20260505071553 | 59 | 259 | 2.6 | 7.0 | 0.00 | 0.01 | 0.00 | 84 | 1015.1 |
| 20260505070055 | 59 | 277 | 1.7 | 8.7 | 0.00 | 0.01 | 0.00 | 83 | 1015.1 |
| 20260505064602 | 59 | 0 | 0.9 | 5.2 | 0.00 | 0.01 | 0.01 | 82 | 1015.4 |
| 20260505063055 | 59 | 0 | 0.9 | 3.5 | 0.00 | 0.01 | 0.01 | 82 | 1015.3 |
| 20260505061553 | 59 | 271 | 1.7 | 5.2 | 0.00 | 0.01 | 0.01 | 82 | 1015.3 |
| 20260505054604 | 59 | 0 | 0.9 | 7.0 | 0.00 | 0.01 | 0.01 | 82 | 1015.6 |
| 20260505053112 | 59 | 250 | 1.7 | 9.6 | 0.00 | 0.01 | 0.01 | 82 | 1015.7 |
| 20260505051555 | 60 | 261 | 5.2 | 11.3 | 0.00 | 0.01 | 0.01 | 82 | 1015.8 |
| 20260505041612 | 61 | 231 | 6.1 | 11.3 | 0.00 | 0.01 | 0.01 | 78 | 1015.7 |
| 20260505040057 | 61 | 360 | 4.3 | 9.6 | 0.00 | 0.01 | 0.01 | 77 | 1015.6 |
| 20260505034548 | 61 | 269 | 1.7 | 6.1 | 0.00 | 0.01 | 0.01 | 79 | 1015.6 |
| 20260505033054 | 61 | 288 | 3.5 | 7.0 | 0.00 | 0.01 | 0.01 | 78 | 1015.5 |
| 20260505031600 | 61 | 279 | 3.5 | 8.7 | 0.00 | 0.01 | 0.01 | 77 | 1015.4 |
| 20260505030052 | 61 | 246 | 4.3 | 8.7 | 0.00 | 0.01 | 0.01 | 76 | 1015.2 |
| 20260505024558 | 61 | 260 | 3.5 | 7.8 | 0.00 | 0.01 | 0.01 | 76 | 1015.0 |
| 20260505023102 | 62 | 264 | 2.6 | 7.8 | 0.00 | 0.01 | 0.01 | 76 | 1015.2 |
| 20260505021555 | 62 | 360 | 3.5 | 9.6 | 0.00 | 0.01 | 0.01 | 75 | 1015.3 |
| 20260505020052 | 62 | 257 | 5.2 | 10.4 | 0.00 | 0.01 | 0.01 | 76 | 1015.2 |
| 20260505014556 | 63 | 248 | 5.2 | 9.6 | 0.00 | 0.01 | 0.01 | 75 | 1015.2 |
| 20260505013101 | 63 | 250 | 5.2 | 10.4 | 0.00 | 0.01 | 0.01 | 74 | 1015.4 |
| 20260505011557 | 63 | 249 | 6.1 | 11.3 | 0.00 | 0.01 | 0.01 | 73 | 1015.2 |
| 20260505010050 | 64 | 254 | 7.0 | 13.0 | 0.00 | 0.01 | 0.01 | 72 | 1015.3 |
| 20260505004552 | 64 | 246 | 7.0 | 13.0 | 0.00 | 0.01 | 0.01 | 70 | 1015.4 |
| 20260505003056 | 66 | 260 | 5.2 | 13.9 | 0.00 | 0.01 | 0.01 | 68 | 1015.4 |
| 20260505001553 | 66 | 360 | 7.0 | 12.2 | 0.00 | 0.01 | 0.01 | 67 | 1015.4 |
| 20260505000058 | 65 | 238 | 7.0 | 12.2 | 0.00 | 0.01 | 0.01 | 67 | 1015.4 |
| 20260504234602 | 65 | 284 | 5.2 | 13.9 | 0.00 | 0.01 | 0.01 | 69 | 1015.3 |
| 20260504233051 | 64 | 360 | 7.0 | 12.2 | 0.00 | 0.01 | 0.01 | 70 | 1015.4 |
| 20260504231601 | 65 | 259 | 5.2 | 13.0 | 0.00 | 0.01 | 0.01 | 67 | 1015.5 |
| 20260504230057 | 66 | 226 | 7.0 | 13.0 | 0.00 | 0.01 | 0.01 | 67 | 1015.4 |
| 20260504224556 | 66 | 240 | 7.0 | 12.2 | 0.00 | 0.01 | 0.01 | 65 | 1015.4 |
| 20260504223054 | 67 | 360 | 6.1 | 13.0 | 0.00 | 0.01 | 0.01 | 65 | 1015.6 |
| 20260504221600 | 66 | 234 | 7.0 | 13.0 | 0.00 | 0.01 | 0.01 | 68 | 1015.8 |
| 20260504220057 | 66 | 234 | 6.1 | 13.0 | 0.00 | 0.01 | 0.01 | 66 | 1016.0 |
| 20260504214554 | 67 | 240 | 7.0 | 14.8 | 0.00 | 0.01 | 0.01 | 66 | 1016.2 |
| 20260504213050 | 66 | 360 | 7.8 | 15.6 | 0.00 | 0.01 | 0.01 | 67 | 1016.3 |
| 20260504211557 | 66 | 267 | 6.1 | 13.0 | 0.00 | 0.01 | 0.01 | 66 | 1016.4 |
| 20260504210108 | 67 | 238 | 7.0 | 13.9 | 0.00 | 0.01 | 0.01 | 63 | 1016.5 |
| 20260504204600 | 66 | 259 | 6.1 | 13.9 | 0.00 | 0.01 | 0.01 | 66 | 1016.7 |
| 20260504203054 | 66 | 296 | 4.3 | 12.2 | 0.00 | 0.01 | 0.01 | 67 | 1016.7 |
| 20260504201555 | 66 | 329 | 5.2 | 13.0 | 0.00 | 0.01 | 0.01 | 65 | 1016.6 |
| 20260504194608 | 65 | 360 | 3.5 | 10.4 | 0.00 | 0.01 | 0.01 | 66 | 1016.7 |
| 20260504193053 | 65 | 304 | 6.1 | 11.3 | 0.00 | 0.01 | 0.01 | 66 | 1016.9 |
| 20260504191557 | 65 | 265 | 5.2 | 12.2 | 0.00 | 0.01 | 0.01 | 68 | 1017.1 |
| 20260504190117 | 65 | 294 | 4.3 | 12.2 | 0.00 | 0.01 | 0.01 | 69 | 1017.0 |
| 20260504184600 | 65 | 296 | 5.2 | 12.2 | 0.00 | 0.01 | 0.01 | 68 | 1017.3 |
| 20260504183053 | 64 | 290 | 6.1 | 12.2 | 0.00 | 0.01 | 0.01 | 68 | 1017.2 |
| 20260504181553 | 65 | 307 | 6.1 | 17.4 | 0.00 | 0.01 | 0.01 | 68 | 1017.1 |
| 20260504180142 | 64 | 276 | 6.1 | 10.4 | 0.00 | 0.01 | 0.01 | 70 | 1017.2 |
| 20260504174551 | 64 | 267 | 6.1 | 13.0 | 0.00 | 0.01 | 0.01 | 70 | 1016.9 |
| 20260504173100 | 64 | 248 | 6.1 | 13.0 | 0.00 | 0.01 | 0.01 | 69 | 1016.9 |
| 20260504171553 | 62 | 292 | 5.2 | 12.2 | 0.00 | 0.01 | 0.01 | 73 | 1016.8 |